Regional Weather Roundup
Issued by NWS

Home | Current Version | Previous Version | Text Only | Print | Product List | Glossary On
Versions: 1 2 3 4 5 6 7 8 9 10 11 12 13 14 15 16 17 18 19 20 21 22 23 24 25 26 27 28 29 30 31 32 33 34 35 36 37 38 39 40 41 42 43 44 45 46 47 48 49 50
000
ASUS43 KIND 262309
RWRIN

WEATHER ROUNDUP FOR INDIANA
NATIONAL WEATHER SERVICE INDIANAPOLIS IN
700 PM EDT SUN MAY 26 2019

NOTE: "FAIR" INDICATES FEW OR NO CLOUDS BELOW 12,000 FEET WITH NO
SIGNIFICANT WEATHER AND/OR OBSTRUCTIONS TO VISIBILITY.

* - STATION DOES NOT REPORT WEATHER SUCH AS PRECIPITATION OR FOG.

+ - STATION NOT QUALITY CONTROLLED BY THE NATIONAL WEATHER SERVICE.
    USE DATA WITH CAUTION...ESPECIALLY DEWPOINT AND RELATIVE
    HUMIDITY OBSERVATIONS.

INZ001>003-010>013-019-020-270000-
NORTHWEST INDIANA

CITY           SKY/WX    TMP DP  RH WIND       PRES   REMARKS
GARY /AIRPORT/ MOSUNNY   63  54  72 VRB7      30.07F
KNOX *+        FAIR      70  63  78 MISG      30.04F
LA PORTE +     FAIR      69  55  61 N6        30.07R
MICHIGAN CITY+ FAIR      64  52  63 N8        30.07S
MONTICELLO +   CLOUDY    71  63  74 NE3       30.04F
RENSSELAER +   CLOUDY    70  63  78 CALM      30.05F
VALPARAISO     FAIR      74  57  55 N7        30.05F

$$

LMZ046-743>745-270000-
SOUTHERN LAKE MICHIGAN

STATION/POSITION TIME  TEMP    WIND        PRES    WAVE
                       AIR SEA DIR/SP/G            HT
                 (UTC) (F)     (DEG/KT/KT) (MB)    (FT)
BURNS HARBOR     2240   60      60/  5/  6 1018.3F
MICHIGAN CITY    2240   57      20/  4/  4   N/A
5NW MICH CITY    2300   56 56   50/  4/  4   N/A     0

$$

INZ004-005-014>016-021>024-270000-
NORTH CENTRAL INDIANA

CITY           SKY/WX    TMP DP  RH WIND       PRES   REMARKS
GOSHEN         PTSUNNY   71  59  65 NW10      30.03F
LOGANSPORT +   CLOUDY    70  61  73 N5G20     30.06S
PERU/GRISSOM   PTSUNNY   72  64  77 N12       30.04S
PLYMOUTH *+    MOSUNNY   72  72 100 W7        30.04S
ROCHESTER +    FAIR      72  61  68 W5        30.05F
SOUTH BEND     CLOUDY    70  54  56 NW7       30.05S
WARSAW +       CLOUDY    70  64  83 W5        30.04F

$$

INZ006>009-017-018-025>027-270000-
NORTHEAST INDIANA

CITY           SKY/WX    TMP DP  RH WIND       PRES   REMARKS
ANGOLA *+      PTSUNNY   72  63  73 N7        30.02F
AUBURN +       CLOUDY    70  64  83 W3        30.03F
FORT WAYNE     PTSUNNY   72  62  71 W8        30.03F
HUNTINGTON +   CLOUDY    71  60  67 NW9       30.04S

$$

INZ028-029-035-036-043>045-051>053-270000-
WEST CENTRAL INDIANA

CITY           SKY/WX    TMP DP  RH WIND       PRES   REMARKS
CRAWFORDSVL +  PTSUNNY   73  64  72 N5        30.05S
GREENCASTLE +  PTSUNNY   75  61  60 N8        30.04F
LAFAYETTE      CLOUDY    73  63  70 N9        30.04S
TERRE HAUTE    FAIR      79  64  60 NW7       30.03S

$$

INZ030>032-037>040-046>048-054>057-064-065-270000-
CENTRAL INDIANA

CITY           SKY/WX    TMP DP  RH WIND       PRES   REMARKS
ANDERSON +     CLOUDY    73  63  70 NW6       30.04
FISHERS *+     CLOUDY    73  66  78 NW7       30.04F
GREENWOOD *+   PTSUNNY  N/A N/A N/A N10       30.02F
INDIANAPOLIS   PTSUNNY   77  65  66 N12       30.03S
-EAGLE CREEK   CLOUDY    76  64  66 N9        30.02F
KOKOMO +       PTSUNNY   73  63  70 N14       30.05S
MARION +       FAIR      73  65  76 CALM      30.05S
MT COMFORT *+  PTSUNNY   75  70  83 N12       30.03F
SHELBYVILLE    PTSUNNY   80  63  55 N12       30.00F
ZIONSVILLE +   CLOUDY    73  67  81 N5        30.05F

$$

INZ033-034-041-042-049-050-058-059-270000-
EAST CENTRAL INDIANA

CITY           SKY/WX    TMP DP  RH WIND       PRES   REMARKS
MUNCIE         CLOUDY    77  63  61 NW7       30.03F
PORTLAND +     PTSUNNY   73  57  56 NW9       30.03S

$$

INZ060-061-067>069-081>083-085>088-270000-
SOUTHWEST INDIANA

CITY           SKY/WX    TMP DP  RH WIND       PRES   REMARKS
EVANSVILLE     FAIR      80  71  74 W6        30.02F
HUNTINGBURG +  FAIR      78  72  81 W6        30.03S
WASHINGTON +   FAIR      79  70  73 SW7       30.01S

$$

INZ062-063-066-070>080-084-089>092-270000-
SOUTH CENTRAL AND SOUTHEAST INDIANA

CITY           SKY/WX    TMP DP  RH WIND       PRES   REMARKS
BLOOMINGTON    FAIR      81  68  64 W7        30.01F
FRENCH LICK *+ FAIR      75  64  69 W3        30.04S
JEFFERSONVL +  FAIR      74  70  86 S9        30.03S
MADISON *+     FAIR      72  72 100 SW6       30.04F
NORTH VERNON + FAIR      73  68  83 SW8       30.01F

$$




USA.gov is the U.S. government's official web portal to all federal, state and local government web resources and services.